Location: Caltech
(34.1382°N, 118.1253°W)
Time: 18:11:45
(UTC-07:00)

ERBS - Visible Passes

Search period start: 04 September 2015 00:00
Search period end: 14 September 2015 00:00
Orbit: 448 x 462 km, 57.0° (Epoch: 03 September)

Date Brightness Start Highest point End Pass type
(mag) Time Alt. Az. Time Alt. Az. Time Alt. Az.
07 Sep 4.0 05:32:37 10° S 05:35:49 33° SE 05:39:04 10° ENE visible
08 Sep 4.6 04:58:02 13° SSE 05:00:13 22° ESE 05:03:04 10° ENE visible
09 Sep 5.0 04:24:22 15° SE 04:24:38 15° ESE 04:26:49 10° E visible
09 Sep 3.3 05:58:14 10° WSW 06:01:31 35° NW 06:04:49 10° NNE visible
10 Sep 2.7 05:24:17 29° WSW 05:25:47 52° NW 05:29:16 10° NNE visible
11 Sep 2.4 04:50:21 73° N 04:50:21 73° N 04:53:39 10° NE visible
12 Sep 4.7 04:16:19 25° NE 04:16:19 25° NE 04:17:57 10° NE visible
12 Sep 4.7 05:50:28 10° WNW 05:51:55 12° NW 05:53:16 10° NNW visible
13 Sep 4.4 05:15:55 16° NW 05:16:03 16° NW 05:18:16 10° N visible
